Regional Weather Roundup
Issued by NWS

Home | Current Version | Previous Version | Graphics & Text | Print | Product List | Glossary On
Versions: 1 2 3 4 5 6 7 8 9 10 11 12 13 14 15 16 17 18 19 20 21 22 23 24 25 26 27 28 29 30 31 32 33 34 35 36 37 38 39 40 41 42 43 44 45 46 47 48 49 50
000
ASUS43 KLOT 020658
RWRIL

ILLINOIS REGIONAL WEATHER ROUNDUP
NATIONAL WEATHER SERVICE CHICAGO/ROMEOVILLE IL
200 AM CDT THU OCT 02 2014

NOTE: "FAIR" INDICATES FEW OR NO CLOUDS BELOW 12,000 FEET WITH NO
SIGNIFICANT WEATHER AND/OR OBSTRUCTIONS TO VISIBILITY.

* THESE STATIONS ARE NOT UNDER NWS QUALITY CONTROL. THEY ALSO MAY NOT
  REPORT WEATHER SUCH AS PRECIPITATION OR FOG.

ILZ001-002-007-009-015-016-024-020800-
NORTHWEST ILLINOIS

CITY           SKY/WX    TMP DP  RH WIND       PRES   REMARKS
MOLINE         CLOUDY    64  61  90 CALM      29.82R FOG
$$

ILZ003-004-008-010-011-017-018-020800-
NORTH CENTRAL ILLINOIS

CITY           SKY/WX    TMP DP  RH WIND       PRES   REMARKS
ROCKFORD       NOT AVBL
$$

ILZ005-006-012>014-019>023-020800-
NORTHEAST ILLINOIS

CITY           SKY/WX    TMP DP  RH WIND       PRES   REMARKS
CHICAGO-OHARE  CLOUDY    64  56  75 SE8       29.88F
CHICAGO-MIDWAY NOT AVBL
AURORA         CLOUDY    63  57  81 SE8       29.88S
WAUKEGAN       CLOUDY    62  55  77 SE6       29.88F
DUPAGE AIRPORT CLOUDY    64  58  80 SE3       29.88S
WHEELING       LGT RAIN  65  55  70 SE7       29.90F
NORTHERLY ISL    N/A     63  56  78 SE5         N/A
$$

LMZ740>746-020800-
SOUTHERN LAKE MICHIGAN

STATION/POSITION SKY/WX   TEMP    WIND        PRES    VSBY  WAVE
                          AIR SEA DIR/SP/G                  HT/PER
                          (F)     (DEG/KT/KT) (MB)    (MI)  (FT/S)
SOUTHERN BUOY              63 62  150/ 16/ 17 1012.8F         3/ 4
WAUKEGAN HARBOR            62     170/  9/ 10   N/A
HARRISON CRIB              64     160/ 13/ 15   N/A
BURNHAM HARBOR             64     140/  7/  8   N/A
CALUMET HARBOR             65     150/  7/ 10 1011.3R
MICHIGAN CITY              65     120/ 14/ 18   N/A
MICHIGAN CITY 6N           65 64  150/ 16/ 19   N/A           2/ 2
ST. JOSEPH                 63 63  120/ 16/ 19   N/A           2/ 2
$$

ILZ025>027-034>036-040-047-049-050-058-095>099-020800-
WEST-CENTRAL ILLINOIS

CITY           SKY/WX    TMP DP  RH WIND       PRES   REMARKS
$$

ILZ028>032-037-038-041>044-048-051>054-059>061-020800-
CENTRAL ILLINOIS

CITY           SKY/WX    TMP DP  RH WIND       PRES   REMARKS
PEORIA         CLOUDY    69  63  81 S12       29.83F
SPRINGFIELD    LGT RAIN  68  65  90 SE12      29.82F
TAYLORVILLE    NOT AVBL
$$

ILZ033-039-045-046-055>057-062-063-020800-
EAST-CENTRAL ILLINOIS

CITY           SKY/WX    TMP DP  RH WIND       PRES   REMARKS
MATTOON        CLOUDY    67  59  75 NW6       29.90S
$$

ILZ079-100>102-020800-
SOUTHWEST ILLINOIS

CITY           SKY/WX    TMP DP  RH WIND       PRES   REMARKS
CAHOKIA*       CLOUDY    71  69  93 N3        29.85R FOG
$$

ILZ064>066-069>071-074>076-080>082-084>086-088>090-092>094-020800-
SOUTH-CENTRAL ILLINOIS

CITY           SKY/WX    TMP DP  RH WIND       PRES   REMARKS
CARBONDALE     MOCLDY    71  61  70 S8        29.87F
$$

ILZ067-068-072-073-078-083-087-091-020800-
SOUTHEAST ILLINOIS

CITY           SKY/WX    TMP DP  RH WIND       PRES   REMARKS
LAWRENCEVILLE  PTCLDY    64  57  78 S7        29.92S
$$

ABBREVIATIONS USED IN REMARKS
   TC - TEMPERATURE IN CELSIUS
  WCI - WIND CHILL INDEX
   HX - HEAT INDEX
  VSB - VISIBILITY
$$




USA.gov is the U.S. government's official web portal to all federal, state and local government web resources and services.